Flag for Cambodia Weather past 2 weeks in Phnom Penh, Cambodia

Now
75 °F

Clear.


Feels Like: 75 °F
Forecast: 69 / 93 °F
Wind: 1 mph from South

Location: Phnom-Penh / Pochentong

Current Time: Jan 27, 2015 at 1:39:04 AM

Latest Report: Jan 27, 2015 at 1:00 AM


Visibility: 4 mi

Pressure: 29.89 "Hg

Humidity: 83%

Dew point: 70 °F

Location of Phnom PenhLocation

Historic Weather in Phnom Penh — Graph

°F

Phnom Penh temperature yesterday

Maximum temperature yesterday: 90 °F (at 1:30 PM)
Minimum temperature yesterday: 70 °F (at 6:00 AM)
Average temperature yesterday: 81 °F

Past Weeks' High & Low Weather Summary

 TemperatureHumidityPressure
High102 °F (Jan 19, 5:00 PM)94% (Jan 22, 6:00 AM)30.07 "Hg (Jan 22, 6:00 AM)
Low68 °F (Jan 15, 7:00 AM)16% (Jan 15, 3:30 PM)29.71 "Hg (Jan 20, 12:00 PM)
Average79 °F60%29.92 "Hg
* Reported Midnight between Jan 11 and Jan 12 — Jan 27 12:30 AM, Phnom Penh, Weather by CustomWeather, © 2014

Note: Actual official high and low records may vary slightly from our data, if they occured in-between our weather recording intervals... More about our weather records

Advertising

Phnom Penh weather history for previous 24 hours

 ConditionsComfort  
Time TempWeatherWind HumidityBarometerVisibility
12:30 AM
Jan 27
75 °FClear.3 mph83%29.89 "Hg4 mi
12:00 AM75 °FClear.3 mph83%29.89 "Hg4 mi
11:30 PM
Jan 26
75 °FClear.5 mph83%29.89 "Hg4 mi
11:00 PM79 °FClear.5 mph74%29.89 "Hg4 mi
10:30 PM77 °FClear.6 mph83%29.89 "Hg4 mi
10:00 PM77 °FClear.6 mph83%29.89 "Hg4 mi
9:30 PM79 °FClear.5 mph79%29.89 "Hg4 mi
9:00 PM79 °FClear.5 mph74%29.89 "Hg4 mi
8:30 PM79 °FClear.5 mph74%29.89 "Hg4 mi
8:00 PM81 °FClear.5 mph70%29.89 "Hg4 mi
7:30 PM81 °FClear.5 mph70%29.86 "Hg4 mi
7:00 PM82 °FClear.2 mph58%29.86 "Hg5 mi
6:30 PM84 °FClear.2 mph55%29.86 "Hg5 mi
6:00 PM86 °FClear.5 mph49%29.83 "Hg5 mi
5:30 PM86 °FClear.5 mph49%29.83 "Hg6 mi
5:00 PM88 °FClear.6 mph49%29.83 "Hg6 mi
4:30 PM88 °FClear.5 mph46%29.83 "Hg6 mi
4:00 PM90 °FClear.5 mph43%29.83 "Hg6 mi
3:30 PM90 °FClear.7 mph41%29.83 "Hg6 mi
3:00 PM90 °FClear.6 mph38%29.83 "Hg6 mi
2:30 PM90 °FClear.2 mph38%29.83 "Hg6 mi
2:00 PM90 °FClear.6 mph38%29.86 "Hg6 mi
1:30 PM90 °FClear.3 mph41%29.86 "Hg6 mi
1:00 PM88 °FClear.2 mph46%29.89 "Hg6 mi
12:30 PM88 °FClear.3 mph46%29.92 "Hg6 mi
12:00 PM86 °FClear.2 mph52%29.92 "Hg6 mi
11:30 AM86 °FClear.3 mph52%29.95 "Hg6 mi
11:00 AM82 °FClear.3 mph58%29.95 "Hg6 mi
10:30 AM82 °FClear.6 mph58%29.98 "Hg6 mi
9:00 AM77 °FClear.8 mph69%29.98 "Hg5 mi
8:30 AM77 °FHaze.6 mph69%29.98 "Hg4 mi
8:00 AM73 °FFog.3 mph83%29.98 "Hg3 mi
7:30 AM72 °FFog.3 mph88%29.95 "Hg3 mi
7:00 AM70 °FFog.2 mph94%29.95 "Hg3 mi
6:30 AM70 °FFog.5 mph88%29.92 "Hg3 mi
6:00 AM70 °FFog.3 mph88%29.92 "Hg3 mi
1:00 AM73 °FClear.6 mph89%29.92 "Hg4 mi
Weather by CustomWeather, © 2014

See weather overviewHow to use our weather pages